Weather History for KBMG - June, 2012

Change the Weather History Date:

Monday, June 4, 2012

  Actual Average Record
Temperature  
Mean Temperature 62 °F 69 °F  
Max Temperature 68 °F 80 °F 94 °F (2011)
Min Temperature 56 °F 57 °F 48 °F (2013)
Degree Days  
Heating Degree Days 3 1  
Month to date heating degree days 17 6  
Since 1 June heating degree days 17 6  
Since 1 July heating degree days 4153 5257  
Cooling Degree Days 0 5  
Month to date cooling degree days 2 19  
Year to date cooling degree days 203 101  
Since 1 June cooling degree days 2 19  
Growing Degree Days 12 (Base 50)    
Moisture  
Dew Point 59 °F    
Average Humidity 84    
Maximum Humidity 100    
Minimum Humidity 68    
Precipitation  
Precipitation 0.13 in 0.17 in 2.03 in (2001)
Month to date precipitation 0.17 0.69  
Year to date precipitation 11.92 20.58  
Sea Level Pressure  
Sea Level Pressure 29.84 in    
Wind  
Wind Speed 2 mph (NW)    
Max Wind Speed 9 mph    
Max Gust Speed 23 mph    
Visibility 8 miles    
Events Rain    
T = Trace of Precipitation, MM = Missing Value Source: NWS Daily Summary

Daily Weather History Graph

Daily Weather History Graph

Search for Another Location

Airport or City:

Trip Planner

Search our weather history database for the weather conditions in past years. The results will help you decide how hot, cold, wet, or windy it might be!

Date:

Astronomy

Jun. 04, 2012 Rise Set
Actual Time 6:21 AM EDT 9:09 PM EDT
Civil Twilight 5:49 AM EDT 9:40 PM EDT
Nautical Twilight 5:09 AM EDT 10:20 PM EDT
Astronomical Twilight 4:24 AM EDT 11:06 PM EDT
Moon 9:38 PM EDT (6/4) 6:27 AM EDT (6/4)
Length of Visible Light 15h 51m
Length of Day
14h 47m
Full, 100% of the Moon is Illuminated
Jun 4
Full
Jun 11
Last Quarter
Jun 19
New
Jun 26
First Quarter
Jul 3
Full

Hourly Weather History & Observations

Time (EDT) Temp. Dew Point Humidity Pressure Visibility Wind Dir Wind Speed Gust Speed Precip Events Conditions
12:53 AM 64.0 °F 57.0 °F 78% 29.84 in 10.0 mi Calm Calm - N/A   Scattered Clouds
1:53 AM 62.1 °F 57.0 °F 84% 29.83 in 10.0 mi Calm Calm - 0.00 in Rain Light Rain
2:53 AM 61.0 °F 55.9 °F 83% 29.81 in 10.0 mi Calm Calm - 0.00 in   Clear
3:53 AM 57.9 °F 55.0 °F 90% 29.80 in 10.0 mi Calm Calm - N/A   Clear
4:53 AM 57.0 °F 54.0 °F 89% 29.78 in 10.0 mi Calm Calm - N/A   Partly Cloudy
6:53 AM 59.0 °F 55.0 °F 87% 29.81 in 10.0 mi Calm Calm - N/A   Scattered Clouds
7:53 AM 62.1 °F 57.0 °F 84% 29.82 in 10.0 mi North 3.5 mph - N/A   Overcast
8:53 AM 64.9 °F 55.9 °F 73% 29.84 in 10.0 mi Calm Calm - N/A   Mostly Cloudy
9:53 AM 66.9 °F 55.0 °F 66% 29.86 in 10.0 mi Calm Calm - N/A   Overcast
10:53 AM 62.1 °F 57.0 °F 84% 29.89 in 6.0 mi North 4.6 mph - 0.02 in Rain Light Rain
11:53 AM 63.0 °F 59.0 °F 87% 29.88 in 6.0 mi Calm Calm - 0.04 in Rain Light Rain
12:53 PM 66.9 °F 59.0 °F 76% 29.87 in 10.0 mi NNW 3.5 mph - 0.00 in   Overcast
1:53 PM 66.0 °F 57.9 °F 75% 29.87 in 10.0 mi Calm Calm - 0.00 in Rain Light Rain
2:53 PM 64.9 °F 61.0 °F 87% 29.87 in 10.0 mi West 3.5 mph - 0.02 in Rain Light Rain
3:53 PM 64.9 °F 61.0 °F 87% 29.86 in 8.0 mi Calm Calm - 0.02 in Rain Light Rain
4:53 PM 64.0 °F 61.0 °F 90% 29.85 in 10.0 mi Calm Calm - 0.02 in Rain Light Rain
5:53 PM 64.9 °F 61.0 °F 87% 29.84 in 10.0 mi Calm Calm - 0.01 in   Overcast
6:53 PM 64.9 °F 63.0 °F 93% 29.82 in 10.0 mi West 4.6 mph - N/A   Mostly Cloudy
7:23 PM 64.4 °F 62.6 °F 94% 29.84 in 10.0 mi West 3.5 mph - N/A   Overcast
7:53 PM 64.0 °F 62.1 °F 93% 29.82 in 10.0 mi WNW 4.6 mph - N/A   Mostly Cloudy
8:53 PM 63.0 °F 62.1 °F 97% 29.82 in 10.0 mi Calm Calm - N/A   Partly Cloudy
9:53 PM 62.1 °F 61.0 °F 96% 29.82 in 5.0 mi North 3.5 mph - N/A   Clear
10:02 PM 60.8 °F 60.8 °F 100% 29.83 in 2.0 mi Calm Calm - N/A   Partly Cloudy
10:19 PM 60.8 °F 59.0 °F 94% 29.83 in 1.2 mi Calm Calm - N/A   Partly Cloudy
10:24 PM 59.0 °F 59.0 °F 100% 29.83 in 3.0 mi Calm Calm - N/A   Clear
10:30 PM 60.8 °F 59.0 °F 94% 29.83 in 1.8 mi Calm Calm - N/A   Clear
10:40 PM 60.8 °F 59.0 °F 94% 29.83 in 3.0 mi Calm Calm - N/A   Clear
10:53 PM 60.1 °F 59.0 °F 96% 29.83 in 4.0 mi Calm Calm - N/A   Clear
11:53 PM 61.0 °F 59.0 °F 93% 29.82 in 10.0 mi North 4.6 mph - N/A   Clear